Regional Weather Roundup
Issued by NWS

Home | Current Version | Previous Version | Text Only | Print | Product List | Glossary On
Versions: 1 2 3 4 5 6 7 8 9 10 11 12 13 14 15 16 17 18 19 20 21 22 23 24 25 26 27 28 29 30 31 32 33 34 35 36 37 38 39 40 41 42 43 44 45 46 47 48 49 50
000
ASUS42 KKEY 292010
RWRKEY

FLORIDA REGIONAL WEATHER ROUNDUP FOR THE FLORIDA KEYS
NATIONAL WEATHER SERVICE KEY WEST FLORIDA
400 PM EDT FRI APR 29 2016

...SOUTH FLORIDA AND THE KEYS...

CITY           SKY/WX    TMP DP  RH WIND       PRES   REMARKS
FORT MYERS     HVY RAIN  82  73  74 SW12      29.91F
SW REGIONAL AP PTSUNNY   85  71  63 W15       29.92S HX  90
NAPLES         MOSUNNY   84  71  65 SW13      29.93S
MIAMI          MOSUNNY   86  64  47 E12       29.94F
WEST KENDALL   SUNNY     86  64  47 SE7       29.93F
HOMESTEAD      SUNNY     84  67  56 E10       29.94F
MARATHON       SUNNY     85  71  63 SE8       29.94F HX  90
BOCA CHICA NAS PTSUNNY   85  71  63 E10       29.93F HX  90
KEY WEST INTL  SUNNY     84  72  67 E12       29.94F

...INTERNATIONAL WEATHER...

CITY           SKY/WX    TMP DP  RH WIND       PRES   REMARKS
NASSAU BAHAMAS MOSUNNY   82  64  54 N8        29.98F
CANCUN MEXICO  PTSUNNY   86  75  70 SE21      29.87F HX  95
COZUMEL MEXICO PTSUNNY   82  73  74 E18       29.85F

ADJACENT COASTAL WATERS...

STATION/POSITION TIME  SKY/WX   TEMP    WIND        PRES    WAVE
                                AIR SEA DIR/SP/G            HT/PER
                 (UTC)          (F)     (DEG/KT/KT) (MB)    (FT/S)
PULASKI SHOAL LI 2000            79      90/ 10/ 10 1013.4F
SAND KEY         1950            79     120/ 12/ 14 1014.0F
SOMBRERO KEY     NOT AVBL
LONG KEY         1900            80 83  120/  8/ 10 1014.7F
MOLASSES REEF    2000            79 81  110/  7/  8 1014.3F
FOWEY ROCKS      NOT AVBL

$$



USA.gov is the U.S. government's official web portal to all federal, state and local government web resources and services.